| time (UTC) | temp C | wind direction | speed KPH | gust KPH | rain 1hr cm | rain 24hr cm | rain mn cm | humidity % | barometer mb |
| 20260509034446 | 30 | 21 | 1.6 | 3.2 | 0.00 | 0.00 | 0.00 | 69 | 1011.0 |
| 20260509033946 | 30 | 130 | 6.4 | 6.4 | 0.00 | 0.00 | 0.00 | 71 | 1010.0 |
| 20260509033446 | 29 | 155 | 6.4 | 9.7 | 0.00 | 0.00 | 0.00 | 72 | 1010.0 |
| 20260509032946 | 30 | 125 | 6.4 | 6.4 | 0.00 | 0.00 | 0.00 | 71 | 1011.0 |
| 20260509032446 | 29 | 119 | 9.7 | 12.9 | 0.00 | 0.00 | 0.00 | 73 | 1011.0 |
| 20260509031947 | 29 | 34 | 4.8 | 6.4 | 0.00 | 0.00 | 0.00 | 75 | 1010.0 |
| 20260509031446 | 29 | 95 | 3.2 | 3.2 | 0.00 | 0.00 | 0.00 | 75 | 1011.0 |
| 20260509030946 | 28 | 73 | 6.4 | 9.7 | 0.00 | 0.00 | 0.00 | 76 | 1010.0 |
| 20260509030447 | 28 | 13 | 4.8 | 11.3 | 0.00 | 0.00 | 0.00 | 74 | 1010.0 |
| 20260509025947 | 28 | 359 | 12.9 | 14.5 | 0.00 | 0.00 | 0.00 | 75 | 1010.0 |
| 20260509025446 | 28 | 7 | 8.0 | 11.3 | 0.00 | 0.00 | 0.00 | 74 | 1010.0 |
| 20260509024947 | 28 | 12 | 4.8 | 6.4 | 0.00 | 0.00 | 0.00 | 76 | 1010.0 |
| 20260509024446 | 28 | 342 | 8.0 | 9.7 | 0.00 | 0.00 | 0.00 | 76 | 1010.0 |
| 20260509023947 | 28 | 25 | 8.0 | 11.3 | 0.00 | 0.00 | 0.00 | 77 | 1010.0 |
| 20260509023447 | 28 | 16 | 4.8 | 6.4 | 0.00 | 0.00 | 0.00 | 77 | 1010.0 |
| 20260509022947 | 28 | 334 | 1.6 | 1.6 | 0.00 | 0.00 | 0.00 | 78 | 1010.0 |
| 20260509022446 | 28 | 24 | 1.6 | 1.6 | 0.00 | 0.00 | 0.00 | 78 | 1010.0 |
| 20260509021946 | 27 | 31 | 6.4 | 9.7 | 0.00 | 0.00 | 0.00 | 79 | 1010.0 |
| 20260509021447 | 27 | 347 | 3.2 | 3.2 | 0.00 | 0.00 | 0.00 | 81 | 1010.0 |
| 20260509020946 | 27 | 347 | 3.2 | 3.2 | 0.00 | 0.00 | 0.00 | 83 | 1010.0 |
| 20260509020446 | 26 | 343 | 3.2 | 3.2 | 0.00 | 0.00 | 0.00 | 85 | 1010.0 |
| 20260509015946 | 26 | 342 | 3.2 | 3.2 | 0.00 | 0.00 | 0.00 | 87 | 1010.0 |
| 20260509015446 | 26 | 340 | 3.2 | 3.2 | 0.00 | 0.00 | 0.00 | 87 | 1010.0 |
| 20260509014946 | 26 | 337 | 4.8 | 4.8 | 0.00 | 0.00 | 0.00 | 88 | 1010.0 |
| 20260509014446 | 26 | 328 | 4.8 | 4.8 | 0.00 | 0.00 | 0.00 | 88 | 1010.0 |
| 20260509013946 | 26 | 349 | 4.8 | 4.8 | 0.00 | 0.00 | 0.00 | 89 | 1010.0 |
| 20260509013446 | 26 | 344 | 1.6 | 3.2 | 0.00 | 0.00 | 0.00 | 90 | 1010.0 |
| 20260509012946 | 25 | 333 | 0.0 | 1.6 | 0.00 | 0.00 | 0.00 | 91 | 1010.0 |
| 20260509012446 | 25 | 338 | 3.2 | 4.8 | 0.00 | 0.00 | 0.00 | 92 | 1009.0 |
| 20260509011946 | 25 | 349 | 3.2 | 3.2 | 0.00 | 0.00 | 0.00 | 92 | 1009.0 |
| 20260509011446 | 25 | 338 | 3.2 | 4.8 | 0.00 | 0.00 | 0.00 | 92 | 1009.0 |
| 20260509010947 | 25 | 348 | 1.6 | 3.2 | 0.00 | 0.00 | 0.00 | 92 | 1009.0 |
| 20260509010447 | 25 | 357 | 1.6 | 3.2 | 0.00 | 0.00 | 0.00 | 92 | 1009.0 |
| 20260509005946 | 25 | 345 | 3.2 | 3.2 | 0.00 | 0.00 | 0.00 | 93 | 1009.0 |
| 20260509005446 | 25 | 10 | 4.8 | 4.8 | 0.00 | 0.00 | 0.00 | 93 | 1009.0 |
| 20260509004946 | 25 | 346 | 6.4 | 6.4 | 0.00 | 0.00 | 0.00 | 93 | 1009.0 |
| 20260509004446 | 25 | 12 | 3.2 | 4.8 | 0.00 | 0.00 | 0.00 | 93 | 1009.0 |
| 20260509003947 | 25 | 0 | 3.2 | 4.8 | 0.00 | 0.00 | 0.00 | 93 | 1009.0 |
| 20260509003446 | 25 | 349 | 3.2 | 4.8 | 0.00 | 0.00 | 0.00 | 93 | 1009.0 |
| 20260509002946 | 25 | 321 | 1.6 | 3.2 | 0.00 | 0.00 | 0.00 | 92 | 1009.0 |
| 20260509002446 | 25 | 319 | 3.2 | 3.2 | 0.00 | 0.00 | 0.00 | 92 | 1009.0 |
| 20260509001946 | 25 | 214 | 1.6 | 1.6 | 0.00 | 0.00 | 0.00 | 92 | 1009.0 |
| 20260509001446 | 25 | 214 | 1.6 | 1.6 | 0.00 | 0.00 | 0.00 | 92 | 1009.0 |
| 20260509000946 | 25 | 213 | 0.0 | 0.0 | 0.00 | 0.00 | 0.00 | 92 | 1009.0 |
| 20260509000447 | 25 | 213 | 0.0 | 0.0 | 0.00 | 0.00 | 0.00 | 92 | 1009.0 |
| 20260508235946 | 25 | 213 | 0.0 | 0.0 | 0.00 | 0.00 | 0.00 | 91 | 1009.0 |
| 20260508235446 | 25 | 213 | 0.0 | 0.0 | 0.00 | 0.00 | 0.00 | 91 | 1009.0 |
| 20260508234946 | 25 | 213 | 0.0 | 0.0 | 0.00 | 0.00 | 0.00 | 91 | 1009.0 |
| 20260508234446 | 25 | 213 | 0.0 | 1.6 | 0.00 | 0.00 | 0.00 | 91 | 1009.0 |
| 20260508233946 | 25 | 213 | 1.6 | 1.6 | 0.00 | 0.00 | 0.00 | 91 | 1009.0 |
| 20260508233446 | 25 | 213 | 0.0 | 0.0 | 0.00 | 0.00 | 0.00 | 91 | 1009.0 |
| 20260508232946 | 25 | 213 | 0.0 | 0.0 | 0.00 | 0.00 | 0.00 | 91 | 1009.0 |
| 20260508232446 | 25 | 213 | 0.0 | 0.0 | 0.00 | 0.00 | 0.00 | 91 | 1009.0 |
| 20260508231946 | 25 | 213 | 0.0 | 1.6 | 0.00 | 0.00 | 0.00 | 91 | 1009.0 |
| 20260508231446 | 25 | 213 | 1.6 | 1.6 | 0.00 | 0.00 | 0.00 | 91 | 1009.0 |
| 20260508230946 | 25 | 213 | 0.0 | 0.0 | 0.00 | 0.00 | 0.00 | 91 | 1009.0 |
| 20260508230446 | 25 | 213 | 0.0 | 0.0 | 0.00 | 0.00 | 0.00 | 91 | 1009.0 |
| 20260508225946 | 25 | 213 | 0.0 | 0.0 | 0.00 | 0.00 | 0.00 | 91 | 1008.0 |
| 20260508225448 | 25 | 287 | 1.6 | 1.6 | 0.00 | 0.00 | 0.00 | 91 | 1008.0 |
| 20260508224948 | 25 | 290 | 0.0 | 1.6 | 0.00 | 0.00 | 0.00 | 90 | 1009.0 |
| 20260508224447 | 25 | 291 | 0.0 | 1.6 | 0.00 | 0.00 | 0.00 | 90 | 1008.0 |
| 20260508223946 | 25 | 291 | 1.6 | 1.6 | 0.00 | 0.00 | 0.00 | 90 | 1008.0 |
| 20260508223446 | 25 | 291 | 0.0 | 0.0 | 0.00 | 0.00 | 0.00 | 90 | 1008.0 |
| 20260508222946 | 25 | 291 | 0.0 | 0.0 | 0.00 | 0.00 | 0.00 | 90 | 1008.0 |
| 20260508222446 | 25 | 291 | 0.0 | 0.0 | 0.00 | 0.00 | 0.00 | 90 | 1008.0 |
| 20260508221946 | 25 | 291 | 0.0 | 1.6 | 0.00 | 0.00 | 0.00 | 90 | 1008.0 |
| 20260508221446 | 25 | 292 | 0.0 | 0.0 | 0.00 | 0.00 | 0.00 | 90 | 1008.0 |
| 20260508220946 | 25 | 292 | 0.0 | 0.0 | 0.00 | 0.00 | 0.00 | 90 | 1008.0 |
| 20260508220446 | 25 | 292 | 0.0 | 0.0 | 0.00 | 0.00 | 0.00 | 90 | 1008.0 |
| 20260508215947 | 25 | 292 | 0.0 | 0.0 | 0.00 | 0.00 | 0.00 | 90 | 1008.0 |
| 20260508215446 | 25 | 292 | 0.0 | 1.6 | 0.00 | 0.00 | 0.00 | 89 | 1008.0 |
| 20260508214946 | 25 | 292 | 0.0 | 0.0 | 0.00 | 0.00 | 0.00 | 89 | 1008.0 |
| 20260508214446 | 25 | 292 | 0.0 | 0.0 | 0.00 | 0.00 | 0.00 | 89 | 1008.0 |
| 20260508213946 | 25 | 292 | 0.0 | 0.0 | 0.00 | 0.00 | 0.00 | 89 | 1008.0 |
| 20260508213447 | 25 | 292 | 0.0 | 0.0 | 0.00 | 0.00 | 0.00 | 89 | 1008.0 |
| 20260508212948 | 25 | 292 | 0.0 | 1.6 | 0.00 | 0.00 | 0.00 | 89 | 1008.0 |
| 20260508212446 | 25 | 292 | 1.6 | 1.6 | 0.00 | 0.00 | 0.00 | 88 | 1008.0 |
| 20260508211946 | 26 | 292 | 0.0 | 0.0 | 0.00 | 0.00 | 0.00 | 88 | 1008.0 |
| 20260508211447 | 26 | 292 | 0.0 | 0.0 | 0.00 | 0.00 | 0.00 | 88 | 1008.0 |
| 20260508210946 | 26 | 292 | 0.0 | 0.0 | 0.00 | 0.00 | 0.00 | 87 | 1008.0 |
| 20260508210446 | 26 | 292 | 0.0 | 0.0 | 0.00 | 0.00 | 0.00 | 87 | 1008.0 |
| 20260508205946 | 26 | 292 | 0.0 | 0.0 | 0.00 | 0.00 | 0.00 | 87 | 1008.0 |
| 20260508205446 | 26 | 292 | 0.0 | 0.0 | 0.00 | 0.00 | 0.00 | 87 | 1008.0 |
| 20260508204947 | 25 | 292 | 0.0 | 0.0 | 0.00 | 0.00 | 0.00 | 87 | 1008.0 |
| 20260508204446 | 25 | 292 | 0.0 | 0.0 | 0.00 | 0.00 | 0.00 | 87 | 1009.0 |
| 20260508203946 | 25 | 292 | 0.0 | 0.0 | 0.00 | 0.00 | 0.00 | 87 | 1009.0 |
| 20260508203447 | 25 | 292 | 0.0 | 0.0 | 0.00 | 0.00 | 0.00 | 87 | 1009.0 |
| 20260508202948 | 25 | 292 | 0.0 | 0.0 | 0.00 | 0.00 | 0.00 | 87 | 1009.0 |
| 20260508202446 | 25 | 292 | 0.0 | 0.0 | 0.00 | 0.00 | 0.00 | 88 | 1009.0 |
| 20260508201946 | 25 | 292 | 0.0 | 1.6 | 0.00 | 0.00 | 0.00 | 87 | 1009.0 |
| 20260508201446 | 25 | 292 | 0.0 | 0.0 | 0.00 | 0.00 | 0.00 | 87 | 1009.0 |
| 20260508200947 | 25 | 292 | 0.0 | 0.0 | 0.00 | 0.00 | 0.00 | 87 | 1009.0 |
| 20260508200447 | 25 | 292 | 0.0 | 1.6 | 0.00 | 0.00 | 0.00 | 87 | 1009.0 |
| 20260508195946 | 25 | 292 | 0.0 | 0.0 | 0.00 | 0.00 | 0.00 | 87 | 1009.0 |
| 20260508195447 | 25 | 292 | 0.0 | 0.0 | 0.00 | 0.00 | 0.00 | 88 | 1009.0 |
| 20260508194946 | 25 | 292 | 0.0 | 0.0 | 0.00 | 0.00 | 0.00 | 88 | 1009.0 |
| 20260508194447 | 25 | 292 | 0.0 | 0.0 | 0.00 | 0.00 | 0.00 | 89 | 1009.0 |
| 20260508193947 | 25 | 292 | 0.0 | 0.0 | 0.00 | 0.00 | 0.00 | 89 | 1009.0 |
| 20260508193446 | 25 | 292 | 1.6 | 1.6 | 0.00 | 0.00 | 0.00 | 88 | 1009.0 |
| 20260508192947 | 25 | 292 | 0.0 | 1.6 | 0.00 | 0.00 | 0.00 | 88 | 1009.0 |
| 20260508192447 | 25 | 292 | 1.6 | 1.6 | 0.00 | 0.00 | 0.00 | 88 | 1009.0 |
| 20260508191947 | 25 | 291 | 0.0 | 1.6 | 0.00 | 0.00 | 0.00 | 87 | 1009.0 |
| 20260508191447 | 26 | 291 | 0.0 | 0.0 | 0.00 | 0.00 | 0.00 | 86 | 1009.0 |
| 20260508190948 | 26 | 291 | 0.0 | 0.0 | 0.00 | 0.00 | 0.00 | 87 | 1009.0 |
| 20260508190447 | 26 | 291 | 0.0 | 0.0 | 0.00 | 0.00 | 0.00 | 87 | 1009.0 |
| 20260508185947 | 26 | 291 | 1.6 | 1.6 | 0.00 | 0.00 | 0.00 | 87 | 1009.0 |
| 20260508185446 | 26 | 292 | 1.6 | 1.6 | 0.00 | 0.00 | 0.00 | 87 | 1010.0 |
| 20260508184947 | 26 | 298 | 0.0 | 0.0 | 0.00 | 0.00 | 0.00 | 86 | 1009.0 |
| 20260508184446 | 26 | 298 | 0.0 | 0.0 | 0.00 | 0.00 | 0.00 | 86 | 1010.0 |
| 20260508183946 | 26 | 298 | 0.0 | 0.0 | 0.00 | 0.00 | 0.00 | 86 | 1010.0 |
| 20260508183446 | 26 | 298 | 0.0 | 1.6 | 0.00 | 0.00 | 0.00 | 86 | 1010.0 |
| 20260508182947 | 26 | 298 | 0.0 | 1.6 | 0.00 | 0.00 | 0.48 | 85 | 1010.0 |
| 20260508182446 | 25 | 298 | 0.0 | 0.0 | 0.00 | 0.00 | 0.48 | 86 | 1010.0 |
| 20260508181946 | 26 | 298 | 0.0 | 0.0 | 0.00 | 0.00 | 0.48 | 86 | 1010.0 |
| 20260508181446 | 26 | 298 | 0.0 | 0.0 | 0.00 | 0.00 | 0.48 | 86 | 1010.0 |
| 20260508180946 | 25 | 298 | 0.0 | 0.0 | 0.00 | 0.00 | 0.48 | 86 | 1010.0 |
| 20260508180447 | 25 | 298 | 0.0 | 0.0 | 0.00 | 0.00 | 0.48 | 86 | 1010.0 |
| 20260508175946 | 25 | 298 | 1.6 | 1.6 | 0.00 | 0.00 | 0.48 | 86 | 1010.0 |
| 20260508175446 | 25 | 298 | 0.0 | 0.0 | 0.00 | 0.00 | 0.48 | 87 | 1010.0 |
| 20260508174946 | 25 | 298 | 0.0 | 1.6 | 0.00 | 0.00 | 0.48 | 87 | 1011.0 |
| 20260508174447 | 25 | 298 | 1.6 | 3.2 | 0.00 | 0.00 | 0.48 | 87 | 1010.0 |
| 20260508173946 | 25 | 268 | 3.2 | 3.2 | 0.00 | 0.00 | 0.48 | 86 | 1010.0 |
| 20260508173447 | 25 | 248 | 1.6 | 1.6 | 0.00 | 0.00 | 0.48 | 86 | 1011.0 |
| 20260508172947 | 25 | 248 | 0.0 | 0.0 | 0.00 | 0.00 | 0.48 | 85 | 1011.0 |
| 20260508172447 | 25 | 248 | 0.0 | 0.0 | 0.00 | 0.00 | 0.48 | 85 | 1011.0 |
| 20260508171947 | 25 | 248 | 1.6 | 1.6 | 0.00 | 0.00 | 0.48 | 85 | 1011.0 |
| 20260508171044 | 25 | 244 | 1.6 | 3.2 | 0.00 | 0.00 | 0.48 | 85 | 1011.0 |
| 20260508170446 | 25 | 242 | 1.6 | 1.6 | 0.00 | 0.00 | 0.48 | 85 | 1011.0 |
| 20260508165947 | 25 | 238 | 1.6 | 1.6 | 0.00 | 0.00 | 0.48 | 84 | 1011.0 |
| 20260508165447 | 26 | 240 | 0.0 | 1.6 | 0.00 | 0.00 | 0.48 | 85 | 1011.0 |
| 20260508164946 | 25 | 240 | 1.6 | 1.6 | 0.00 | 0.00 | 0.48 | 84 | 1011.0 |
| 20260508164447 | 26 | 246 | 1.6 | 3.2 | 0.00 | 0.00 | 0.48 | 85 | 1011.0 |
| 20260508163947 | 25 | 238 | 1.6 | 1.6 | 0.00 | 0.00 | 0.48 | 85 | 1011.0 |
| 20260508163447 | 26 | 235 | 3.2 | 3.2 | 0.00 | 0.00 | 0.48 | 85 | 1011.0 |
| 20260508162947 | 25 | 253 | 1.6 | 1.6 | 0.00 | 0.00 | 0.48 | 85 | 1011.0 |
| 20260508162447 | 25 | 245 | 1.6 | 1.6 | 0.00 | 0.00 | 0.48 | 86 | 1011.0 |
| 20260508161948 | 26 | 246 | 3.2 | 4.8 | 0.00 | 0.00 | 0.48 | 86 | 1011.0 |
| 20260508161447 | 26 | 254 | 3.2 | 3.2 | 0.00 | 0.00 | 0.48 | 85 | 1011.0 |
| 20260508160948 | 26 | 201 | 1.6 | 3.2 | 0.00 | 0.00 | 0.48 | 85 | 1011.0 |
| 20260508160447 | 26 | 197 | 1.6 | 1.6 | 0.00 | 0.00 | 0.48 | 85 | 1011.0 |
| 20260508155946 | 26 | 194 | 0.0 | 1.6 | 0.00 | 0.00 | 0.48 | 85 | 1010.0 |
| 20260508155448 | 26 | 216 | 1.6 | 1.6 | 0.00 | 0.00 | 0.48 | 85 | 1010.0 |
| 20260508154946 | 26 | 173 | 0.0 | 0.0 | 0.00 | 0.00 | 0.48 | 85 | 1010.0 |
| 20260508154447 | 26 | 171 | 3.2 | 3.2 | 0.00 | 0.00 | 0.48 | 84 | 1010.0 |
| 20260508153946 | 26 | 153 | 3.2 | 3.2 | 0.00 | 0.00 | 0.48 | 83 | 1010.0 |
| 20260508153447 | 26 | 141 | 3.2 | 3.2 | 0.00 | 0.00 | 0.48 | 83 | 1010.0 |
| 20260508152946 | 26 | 82 | 0.0 | 1.6 | 0.00 | 0.00 | 0.48 | 83 | 1010.0 |
| 20260508152447 | 26 | 106 | 1.6 | 3.2 | 0.00 | 0.00 | 0.48 | 83 | 1010.0 |
| 20260508151946 | 27 | 111 | 1.6 | 3.2 | 0.00 | 0.00 | 0.48 | 82 | 1010.0 |
| 20260508151447 | 27 | 121 | 3.2 | 3.2 | 0.00 | 0.00 | 0.48 | 82 | 1010.0 |
| 20260508150947 | 27 | 151 | 3.2 | 3.2 | 0.00 | 0.00 | 0.48 | 80 | 1010.0 |
| 20260508150446 | 27 | 138 | 6.4 | 6.4 | 0.00 | 0.00 | 0.48 | 78 | 1010.0 |
| 20260508145946 | 27 | 116 | 6.4 | 6.4 | 0.00 | 0.00 | 0.48 | 78 | 1010.0 |
| 20260508145447 | 27 | 123 | 6.4 | 6.4 | 0.00 | 0.00 | 0.48 | 77 | 1010.0 |
| 20260508144946 | 27 | 133 | 6.4 | 6.4 | 0.00 | 0.00 | 0.48 | 77 | 1010.0 |
| 20260508144449 | 27 | 97 | 6.4 | 9.7 | 0.00 | 0.00 | 0.48 | 77 | 1010.0 |
| 20260508143947 | 27 | 124 | 4.8 | 4.8 | 0.00 | 0.00 | 0.48 | 77 | 1010.0 |
| 20260508143447 | 27 | 131 | 6.4 | 6.4 | 0.00 | 0.00 | 0.48 | 77 | 1009.0 |
| 20260508142946 | 27 | 135 | 3.2 | 4.8 | 0.00 | 0.00 | 0.48 | 76 | 1009.0 |
| 20260508142451 | 27 | 146 | 8.0 | 9.7 | 0.00 | 0.00 | 0.48 | 76 | 1009.0 |
| 20260508141946 | 27 | 96 | 6.4 | 6.4 | 0.00 | 0.00 | 0.48 | 76 | 1009.0 |
| 20260508141447 | 27 | 119 | 8.0 | 11.3 | 0.00 | 0.00 | 0.48 | 75 | 1009.0 |
| 20260508140946 | 27 | 142 | 8.0 | 9.7 | 0.00 | 0.00 | 0.48 | 76 | 1009.0 |
| 20260508140446 | 27 | 131 | 6.4 | 6.4 | 0.00 | 0.00 | 0.48 | 74 | 1009.0 |
| 20260508135946 | 27 | 70 | 6.4 | 9.7 | 0.00 | 0.00 | 0.48 | 74 | 1009.0 |
| 20260508135447 | 27 | 123 | 3.2 | 6.4 | 0.00 | 0.00 | 0.48 | 75 | 1009.0 |
| 20260508134946 | 27 | 133 | 6.4 | 9.7 | 0.00 | 0.00 | 0.48 | 75 | 1009.0 |
| 20260508134446 | 27 | 99 | 14.5 | 20.9 | 0.00 | 0.00 | 0.48 | 74 | 1009.0 |
| 20260508133946 | 27 | 143 | 9.7 | 11.3 | 0.00 | 0.00 | 0.48 | 76 | 1008.0 |
| 20260508133453 | 27 | 87 | 12.9 | 16.1 | 0.00 | 0.00 | 0.48 | 74 | 1008.0 |
| 20260508132947 | 27 | 101 | 12.9 | 16.1 | 0.00 | 0.00 | 0.48 | 76 | 1008.0 |
| 20260508132447 | 26 | 90 | 14.5 | 16.1 | 0.00 | 0.00 | 0.48 | 77 | 1008.0 |
| 20260508131946 | 26 | 156 | 12.9 | 14.5 | 0.00 | 0.00 | 0.48 | 78 | 1007.0 |
| 20260508131449 | 26 | 123 | 14.5 | 24.1 | 0.00 | 0.00 | 0.48 | 78 | 1007.0 |
| 20260508130946 | 26 | 113 | 11.3 | 14.5 | 0.00 | 0.00 | 0.48 | 78 | 1007.0 |
| 20260508130446 | 26 | 106 | 11.3 | 14.5 | 0.00 | 0.00 | 0.48 | 78 | 1007.0 |
| 20260508125947 | 26 | 120 | 11.3 | 14.5 | 0.00 | 0.00 | 0.48 | 78 | 1007.0 |
| 20260508125447 | 26 | 102 | 9.7 | 12.9 | 0.00 | 0.00 | 0.48 | 77 | 1007.0 |
| 20260508124947 | 26 | 117 | 8.0 | 11.3 | 0.00 | 0.00 | 0.48 | 77 | 1007.0 |
| 20260508122947 | 29 | 115 | 22.5 | 29.0 | 0.00 | 0.00 | 0.48 | 71 | 1007.0 |
| 20260508122447 | 30 | 143 | 8.0 | 11.3 | 0.00 | 0.00 | 0.48 | 69 | 1007.0 |
| 20260508121947 | 30 | 109 | 6.4 | 9.7 | 0.00 | 0.00 | 0.48 | 64 | 1006.0 |
| 20260508121447 | 30 | 97 | 11.3 | 14.5 | 0.00 | 0.00 | 0.48 | 63 | 1006.0 |
| 20260508120947 | 31 | 109 | 11.3 | 12.9 | 0.00 | 0.00 | 0.48 | 64 | 1006.0 |
| 20260508120446 | 31 | 78 | 16.1 | 20.9 | 0.00 | 0.00 | 0.48 | 63 | 1005.0 |
| 20260508115947 | 31 | 104 | 14.5 | 17.7 | 0.00 | 0.00 | 0.48 | 61 | 1005.0 |
| 20260508115446 | 32 | 136 | 12.9 | 14.5 | 0.00 | 0.00 | 0.48 | 61 | 1006.0 |
| 20260508114947 | 32 | 122 | 4.8 | 6.4 | 0.00 | 0.00 | 0.48 | 66 | 1006.0 |
| 20260508114446 | 32 | 149 | 17.7 | 20.9 | 0.00 | 0.00 | 0.48 | 66 | 1006.0 |
| 20260508113946 | 32 | 130 | 14.5 | 20.9 | 0.00 | 0.00 | 0.48 | 65 | 1006.0 |
| 20260508113446 | 32 | 113 | 9.7 | 12.9 | 0.00 | 0.00 | 0.48 | 65 | 1005.0 |
| 20260508112946 | 31 | 132 | 11.3 | 14.5 | 0.00 | 0.00 | 0.48 | 65 | 1005.0 |
| 20260508112446 | 31 | 148 | 6.4 | 9.7 | 0.00 | 0.00 | 0.48 | 64 | 1005.0 |
| 20260508111947 | 32 | 126 | 6.4 | 9.7 | 0.00 | 0.00 | 0.48 | 63 | 1006.0 |
| 20260508111446 | 32 | 137 | 11.3 | 12.9 | 0.00 | 0.00 | 0.48 | 61 | 1005.0 |
| 20260508110947 | 32 | 136 | 9.7 | 9.7 | 0.00 | 0.00 | 0.48 | 62 | 1005.0 |
| 20260508110446 | 32 | 116 | 12.9 | 16.1 | 0.00 | 0.00 | 0.48 | 61 | 1005.0 |
| 20260508105947 | 32 | 117 | 14.5 | 16.1 | 0.00 | 0.00 | 0.48 | 62 | 1005.0 |
| 20260508105446 | 32 | 174 | 11.3 | 14.5 | 0.00 | 0.00 | 0.48 | 63 | 1005.0 |
| 20260508104946 | 32 | 153 | 12.9 | 16.1 | 0.00 | 0.00 | 0.48 | 62 | 1005.0 |
| 20260508104446 | 33 | 140 | 11.3 | 14.5 | 0.00 | 0.00 | 0.48 | 63 | 1005.0 |
| 20260508103947 | 35 | 133 | 9.7 | 12.9 | 0.00 | 0.00 | 0.48 | 62 | 1005.0 |
| 20260508103447 | 36 | 141 | 12.9 | 14.5 | 0.00 | 0.00 | 0.48 | 53 | 1005.0 |
| 20260508102947 | 35 | 118 | 8.0 | 9.7 | 0.00 | 0.00 | 0.48 | 48 | 1005.0 |
| 20260508102446 | 36 | 117 | 1.6 | 3.2 | 0.00 | 0.00 | 0.48 | 49 | 1005.0 |
| 20260508101947 | 36 | 45 | 3.2 | 6.4 | 0.00 | 0.00 | 0.48 | 49 | 1005.0 |
| 20260508101446 | 36 | 310 | 1.6 | 1.6 | 0.00 | 0.00 | 0.48 | 47 | 1005.0 |
| 20260508100946 | 36 | 61 | 3.2 | 3.2 | 0.00 | 0.00 | 0.48 | 47 | 1005.0 |
| 20260508100447 | 35 | 61 | 3.2 | 3.2 | 0.00 | 0.00 | 0.48 | 50 | 1005.0 |
| 20260508095947 | 36 | 64 | 3.2 | 4.8 | 0.00 | 0.00 | 0.48 | 49 | 1005.0 |
| 20260508095446 | 36 | 342 | 4.8 | 4.8 | 0.00 | 0.00 | 0.48 | 49 | 1005.0 |
| 20260508094948 | 36 | 26 | 6.4 | 11.3 | 0.00 | 0.00 | 0.48 | 49 | 1005.0 |
| 20260508094446 | 36 | 33 | 0.0 | 0.0 | 0.00 | 0.00 | 0.48 | 47 | 1005.0 |
| 20260508093946 | 36 | 63 | 1.6 | 3.2 | 0.00 | 0.00 | 0.48 | 49 | 1005.0 |
| 20260508093447 | 35 | 12 | 3.2 | 4.8 | 0.00 | 0.00 | 0.48 | 50 | 1005.0 |
| 20260508092946 | 36 | 71 | 4.8 | 6.4 | 0.00 | 0.00 | 0.48 | 50 | 1006.0 |
| 20260508092446 | 35 | 278 | 6.4 | 6.4 | 0.00 | 0.00 | 0.48 | 52 | 1005.0 |
| 20260508091947 | 35 | 73 | 1.6 | 1.6 | 0.00 | 0.00 | 0.48 | 52 | 1005.0 |
| 20260508091447 | 35 | 300 | 3.2 | 3.2 | 0.00 | 0.00 | 0.48 | 52 | 1006.0 |
| 20260508090946 | 35 | 31 | 8.0 | 11.3 | 0.00 | 0.00 | 0.48 | 52 | 1006.0 |
| 20260508090449 | 35 | 123 | 3.2 | 4.8 | 0.00 | 0.00 | 0.48 | 51 | 1006.0 |
| 20260508085946 | 35 | 348 | 1.6 | 1.6 | 0.00 | 0.00 | 0.48 | 52 | 1006.0 |
| 20260508085447 | 35 | 16 | 4.8 | 6.4 | 0.00 | 0.00 | 0.48 | 53 | 1006.0 |
| 20260508084947 | 34 | 23 | 8.0 | 9.7 | 0.00 | 0.00 | 0.48 | 53 | 1006.0 |
| 20260508084447 | 34 | 10 | 4.8 | 4.8 | 0.00 | 0.00 | 0.48 | 54 | 1006.0 |
| 20260508083946 | 35 | 33 | 6.4 | 9.7 | 0.00 | 0.00 | 0.48 | 53 | 1007.0 |
| 20260508083447 | 35 | 350 | 3.2 | 4.8 | 0.00 | 0.00 | 0.48 | 53 | 1007.0 |
| 20260508082949 | 35 | 359 | 1.6 | 1.6 | 0.00 | 0.00 | 0.48 | 54 | 1007.0 |
| 20260508082448 | 35 | 79 | 3.2 | 3.2 | 0.00 | 0.00 | 0.48 | 54 | 1007.0 |
| 20260508081948 | 35 | 8 | 1.6 | 1.6 | 0.00 | 0.00 | 0.48 | 53 | 1007.0 |
| 20260508081449 | 35 | 156 | 8.0 | 12.9 | 0.00 | 0.00 | 0.48 | 54 | 1007.0 |
| 20260508080946 | 35 | 81 | 1.6 | 3.2 | 0.00 | 0.00 | 0.48 | 53 | 1007.0 |
| 20260508080446 | 35 | 11 | 4.8 | 6.4 | 0.00 | 0.00 | 0.48 | 54 | 1007.0 |
| 20260508075948 | 35 | 45 | 0.0 | 0.0 | 0.00 | 0.00 | 0.48 | 54 | 1007.0 |
| 20260508075448 | 34 | 67 | 4.8 | 6.4 | 0.00 | 0.00 | 0.48 | 56 | 1007.0 |
| 20260508074947 | 35 | 6 | 8.0 | 11.3 | 0.00 | 0.00 | 0.48 | 55 | 1007.0 |
| 20260508074446 | 34 | 194 | 3.2 | 4.8 | 0.00 | 0.00 | 0.48 | 55 | 1007.0 |
| 20260508073949 | 33 | 58 | 1.6 | 3.2 | 0.00 | 0.00 | 0.48 | 56 | 1008.0 |
| 20260508073446 | 33 | 336 | 1.6 | 3.2 | 0.00 | 0.00 | 0.48 | 58 | 1008.0 |
| 20260508072946 | 33 | 10 | 4.8 | 9.7 | 0.00 | 0.00 | 0.48 | 58 | 1008.0 |
| 20260508072446 | 33 | 64 | 3.2 | 4.8 | 0.00 | 0.00 | 0.48 | 60 | 1008.0 |
| 20260508071946 | 33 | 124 | 6.4 | 6.4 | 0.00 | 0.00 | 0.48 | 59 | 1008.0 |
| 20260508071446 | 33 | 156 | 6.4 | 6.4 | 0.00 | 0.00 | 0.48 | 59 | 1008.0 |
| 20260508070947 | 33 | 111 | 1.6 | 3.2 | 0.00 | 0.00 | 0.48 | 59 | 1008.0 |
| 20260508070446 | 33 | 145 | 3.2 | 4.8 | 0.00 | 0.00 | 0.48 | 59 | 1008.0 |
| 20260508065946 | 33 | 143 | 3.2 | 3.2 | 0.00 | 0.00 | 0.48 | 61 | 1008.0 |
| 20260508065446 | 32 | 124 | 6.4 | 6.4 | 0.00 | 0.00 | 0.48 | 63 | 1008.0 |
| 20260508064948 | 32 | 163 | 6.4 | 6.4 | 0.00 | 0.00 | 0.48 | 62 | 1008.0 |
| 20260508064448 | 32 | 307 | 3.2 | 4.8 | 0.00 | 0.00 | 0.48 | 62 | 1008.0 |
| 20260508063946 | 33 | 38 | 4.8 | 4.8 | 0.00 | 0.00 | 0.48 | 61 | 1008.0 |
| 20260508050946 | 31 | 337 | 4.8 | 4.8 | 0.00 | 0.00 | 0.48 | 69 | 1010.0 |
| 20260508050446 | 30 | 286 | 1.6 | 3.2 | 0.00 | 0.00 | 0.48 | 69 | 1010.0 |
| 20260508045946 | 30 | 122 | 1.6 | 1.6 | 0.00 | 0.00 | 0.48 | 71 | 1010.0 |
| 20260508045447 | 30 | 119 | 3.2 | 3.2 | 0.00 | 0.00 | 0.48 | 70 | 1010.0 |
| 20260508044946 | 31 | 228 | 1.6 | 1.6 | 0.00 | 0.00 | 0.48 | 70 | 1010.0 |
| 20260508044446 | 31 | 224 | 3.2 | 4.8 | 0.00 | 0.00 | 0.48 | 71 | 1010.0 |
| 20260508043947 | 31 | 223 | 0.0 | 1.6 | 0.00 | 0.00 | 0.48 | 70 | 1010.0 |
| 20260508043446 | 30 | 239 | 1.6 | 1.6 | 0.00 | 0.00 | 0.48 | 72 | 1010.0 |
| 20260508042946 | 30 | 42 | 3.2 | 3.2 | 0.00 | 0.00 | 0.48 | 72 | 1010.0 |
| 20260508042447 | 30 | 11 | 3.2 | 4.8 | 0.00 | 0.00 | 0.48 | 72 | 1010.0 |
| 20260508041946 | 30 | 344 | 3.2 | 3.2 | 0.00 | 0.00 | 0.48 | 73 | 1010.0 |
| 20260508041446 | 30 | 286 | 0.0 | 1.6 | 0.00 | 0.00 | 0.48 | 73 | 1010.0 |
| 20260508040946 | 29 | 314 | 1.6 | 3.2 | 0.00 | 0.00 | 0.48 | 74 | 1010.0 |
| 20260508040447 | 29 | 348 | 4.8 | 4.8 | 0.00 | 0.00 | 0.48 | 74 | 1010.0 |
| 20260508035946 | 30 | 290 | 1.6 | 1.6 | 0.00 | 0.00 | 0.48 | 72 | 1010.0 |
| 20260508035447 | 30 | 246 | 1.6 | 1.6 | 0.00 | 0.00 | 0.48 | 74 | 1010.0 |
| 20260508034946 | 29 | 235 | 0.0 | 1.6 | 0.00 | 0.00 | 0.48 | 74 | 1010.0 |